Theta_e
337 340 341 342 343 343 342 340 339 338 337 336 336 336 335 335 334 334 333 332 331 332 334 334 334 335 335 335 335 336 336 336
333 336 339 341 342 344 344 343 341 339 338 337 338 337 337 335 335 334 333 333 333 334 335 335 335 335 335 335 336 336 337 335
321 319 323 337 340 342 344 344 343 340 339 338 339 339 338 338 337 336 335 334 334 335 335 336 335 335 335 336 335 336 336 337
324 321 318 318 330 339 342 344 344 342 341 340 339 340 339 339 338 338 337 336 334 335 335 336 337 336 336 336 336 336 337 335
322 322 319 317 322 333 339 342 344 343 342 341 341 341 341 340 340 340 339 337 337 338 338 337 338 338 337 337 336 335 336 336
328 331 325 316 317 318 332 339 343 343 342 342 342 342 342 342 341 340 340 338 338 338 340 340 340 338 338 338 336 336 335 334
327 332 330 326 329 327 322 331 340 342 342 342 342 342 342 341 340 340 340 339 338 338 339 339 340 339 338 338 337 336 334 333
325 326 330 333 331 334 335 335 339 340 342 343 342 342 342 341 341 340 340 340 338 338 338 338 338 339 337 337 336 335 333 330
323 323 324 326 331 333 335 338 339 340 341 342 342 341 341 341 341 340 340 340 340 339 336 336 336 336 336 336 336 335 333 329
322 322 321 322 322 324 329 334 337 338 338 339 340 340 340 340 341 341 339 339 339 338 336 336 336 336 335 335 335 334 331 327
321 321 321 320 320 320 320 322 328 333 336 337 338 339 339 339 339 339 338 338 337 336 335 336 336 336 336 335 335 332 329 324
320 320 320 319 319 319 319 319 321 323 329 335 337 338 338 338 338 338 337 336 336 335 335 334 335 336 336 336 333 330 325 322
321 321 320 320 320 319 319 319 320 320 323 329 335 337 337 337 337 336 336 336 337 335 333 334 334 333 333 332 330 327 324 319
320 321 320 319 319 318 318 318 319 320 324 328 331 334 336 336 337 335 334 334 334 334 333 332 333 334 332 331 330 327 323 321
318 319 318 317 317 317 318 319 319 320 324 327 329 330 332 333 333 334 334 333 334 334 333 333 333 333 331 331 328 324 323 320
316 316 316 315 314 314 315 315 317 320 324 326 328 329 329 329 329 330 331 331 331 331 332 331 331 331 332 329 326 323 321 317
313 313 314 313 313 312 313 313 313 314 316 317 318 322 327 329 329 329 328 328 327 327 328 328 327 326 329 328 326 321 319 317
312 312 312 311 311 311 312 311 311 312 313 313 313 314 316 318 321 323 324 324 324 324 324 324 324 324 324 324 323 320 317 315
313 312 312 311 310 310 310 310 310 310 309 310 310 311 312 313 314 314 316 317 317 318 319 320 320 320 320 318 317 313 310 308
Wind_Speed
27 26 26 27 27 28 29 32 35 37 33 32 27 27 30 27 27 29 31 32 33 31 26 24 23 21 20 20 20 21 22 21
20 21 23 24 26 29 34 30 35 33 32 28 28 32 27 27 29 30 31 30 30 30 27 25 24 25 25 23 22 23 23 21
14 17 20 25 31 33 30 36 33 36 33 36 26 25 26 27 26 29 32 30 29 29 28 27 27 28 27 26 24 24 24 23
12 12 13 20 29 31 34 36 34 33 31 25 22 16 19 20 29 28 28 29 33 30 32 32 30 32 30 30 31 32 27 23
8 12 14 12 18 23 24 24 27 27 28 27 30 28 28 29 25 24 24 28 33 32 34 35 34 32 34 33 33 33 29 23
9 9 10 4 6 15 17 18 22 24 26 29 26 29 28 23 22 23 24 27 33 34 35 35 35 36 36 34 31 34 33 28
8 11 11 9 5 2 10 16 19 21 23 27 30 29 26 22 24 24 24 26 28 34 34 35 33 34 36 37 36 33 33 33
8 11 11 14 10 5 5 12 17 21 24 26 30 31 28 30 27 26 25 25 23 35 30 30 32 33 34 33 31 33 32 31
10 10 9 8 8 7 6 9 13 16 21 26 27 28 28 29 29 29 28 28 27 24 24 26 27 28 30 33 33 34 35 33
10 9 13 14 14 12 10 12 15 18 20 21 25 27 29 32 28 26 30 27 29 25 25 25 26 25 27 29 31 33 33 32
7 8 11 14 17 18 18 18 22 23 25 26 25 27 29 29 26 27 25 25 25 26 24 25 26 27 27 26 27 30 31 29
8 9 13 14 20 21 23 23 24 26 26 27 26 28 24 22 25 25 26 25 27 25 24 25 25 27 26 26 29 29 29 30
8 11 16 18 19 20 20 22 22 27 26 23 26 24 21 22 25 25 24 24 24 24 25 26 26 27 28 28 28 29 31 32
7 9 11 16 20 22 23 24 24 22 20 20 19 21 20 22 21 21 25 28 29 27 27 27 25 26 26 27 30 32 33 35
7 10 10 15 17 20 24 25 24 20 16 15 16 16 17 20 25 28 27 25 26 27 29 29 27 28 28 30 32 34 33 37
10 10 10 16 20 22 24 25 28 24 20 16 15 15 15 16 19 22 23 23 26 27 29 30 30 32 31 34 35 36 36 36
9 10 11 15 18 19 20 22 24 23 23 22 21 20 16 14 15 17 19 20 21 22 29 30 29 33 33 37 38 36 37 37
8 9 9 12 15 17 20 19 20 22 22 22 22 22 21 20 17 16 19 20 18 20 22 24 28 30 32 35 37 35 34 34
5 5 7 11 13 16 16 18 19 22 23 23 24 23 21 20 19 19 16 15 14 16 18 21 23 25 28 27 30 28 23 21
Wind_Direction
239 241 236 230 224 220 223 224 223 223 224 226 228 234 238 235 236 237 238 239 239 239 240 242 241 240 240 237 236 241 241 246
257 252 245 234 230 222 222 217 221 213 211 213 220 224 229 233 235 238 239 238 239 238 238 240 238 237 237 236 237 240 246 244
270 256 243 233 231 227 224 221 216 216 214 217 219 224 231 234 235 236 236 235 235 233 234 237 236 235 237 233 229 235 243 238
304 300 262 245 232 225 224 221 218 216 216 214 218 225 229 227 229 234 234 233 239 232 238 238 237 237 234 235 231 231 235 237
312 313 313 256 242 233 229 228 223 221 214 215 214 218 222 229 230 231 230 232 238 235 242 241 238 236 238 237 240 235 231 233
344 346 329 324 233 226 228 225 224 221 216 219 221 227 233 237 230 229 229 232 238 240 232 237 235 237 241 242 239 235 231 227
6 7 13 15 18 206 229 224 221 216 215 220 225 230 233 234 230 231 228 230 233 243 237 239 238 239 243 246 247 239 236 229
15 20 18 16 5 355 243 227 224 224 220 223 226 231 231 234 238 234 233 233 229 244 232 234 238 241 246 247 244 246 236 231
32 21 14 11 4 351 299 268 255 235 231 233 230 231 232 237 238 235 237 236 239 241 238 239 242 244 248 246 246 248 242 238
11 2 0 353 349 333 300 274 263 256 255 248 238 234 232 236 240 239 238 242 245 244 244 246 248 246 246 244 246 244 243 235
1 350 346 340 334 324 312 294 279 275 263 252 249 246 242 241 238 239 242 247 247 246 245 250 254 254 252 249 251 247 237 223
342 335 332 332 335 333 323 310 297 287 273 261 252 250 247 245 240 243 243 247 248 248 248 250 250 251 250 248 245 239 225 221
357 356 351 351 348 341 330 319 310 302 296 267 255 254 251 242 243 247 245 246 247 245 246 246 247 247 244 242 235 232 223 208
22 11 10 5 358 353 348 343 328 320 300 283 268 254 245 247 254 256 258 255 253 246 242 242 244 246 246 239 237 231 222 217
42 34 25 20 17 11 9 6 0 345 331 304 291 282 265 260 266 265 263 257 247 244 246 246 249 246 245 242 236 227 225 217
35 30 24 23 19 13 15 14 15 17 20 9 345 326 314 302 293 285 277 265 255 250 250 254 254 247 243 238 233 225 220 213
38 33 28 24 19 10 10 13 12 15 22 25 21 13 359 341 315 301 294 284 278 265 261 260 252 243 243 243 235 221 219 211
48 37 32 22 15 5 3 6 13 19 19 18 18 20 18 12 1 348 338 320 309 285 271 263 257 255 256 249 244 229 218 215
58 34 23 21 17 16 11 11 25 17 10 10 12 13 13 10 9 8 1 351 339 323 306 290 276 270 267 257 238 220 213 202